Time,TemperatureF,DewpointF,PressureIn,WindDirection,WindDirectionDegrees,WindSpeedMPH,WindSpeedGustMPH,Humidity,HourlyPrecipIn,Conditions,Clouds,dailyrainin,SoftwareType,DateUTC
2013-04-27 00:02:00,64.0,56.3,30.32,ENE,77,0.0,0.0,76,0.00,,,0.00,Wunderground v.1.15,2013-04-27 04:02:00,
2013-04-27 00:04:00,63.9,56.2,30.33,ENE,74,0.0,0.0,76,0.00,,,0.00,Wunderground v.1.15,2013-04-27 04:04:00,
2013-04-27 00:09:00,63.9,56.2,30.33,ENE,60,0.0,0.0,76,0.00,,,0.00,Wunderground v.1.15,2013-04-27 04:09:00,
2013-04-27 00:12:00,63.9,56.2,30.34,ENE,72,0.0,0.0,76,0.00,,,0.00,Wunderground v.1.15,2013-04-27 04:12:00,
2013-04-27 00:17:00,63.8,56.1,30.34,ENE,63,3.0,5.0,76,0.00,,,0.00,Wunderground v.1.15,2013-04-27 04:17:00,
2013-04-27 00:23:00,63.7,56.0,30.33,ENE,74,0.0,0.0,76,0.00,,,0.00,Wunderground v.1.15,2013-04-27 04:23:00,
2013-04-27 00:28:00,63.6,55.9,30.33,ENE,68,0.0,0.0,76,0.00,,,0.00,Wunderground v.1.15,2013-04-27 04:28:00,
2013-04-27 00:34:00,63.7,56.0,30.33,East,94,0.0,3.0,76,0.00,,,0.00,Wunderground v.1.15,2013-04-27 04:34:00,
2013-04-27 00:39:00,63.7,56.0,30.33,East,86,0.0,0.0,76,0.00,,,0.00,Wunderground v.1.15,2013-04-27 04:39:00,
2013-04-27 00:45:00,63.7,56.0,30.32,East,94,0.0,2.0,76,0.00,,,0.00,Wunderground v.1.15,2013-04-27 04:45:00,
2013-04-27 00:50:00,63.7,56.4,30.33,East,82,0.0,0.0,77,0.00,,,0.00,Wunderground v.1.15,2013-04-27 04:50:00,
2013-04-27 00:55:00,63.7,56.7,30.32,East,85,0.0,0.0,78,0.00,,,0.00,Wunderground v.1.15,2013-04-27 04:55:00,
2013-04-27 01:01:00,63.8,56.8,30.31,East,99,0.0,1.0,78,0.00,,,0.00,Wunderground v.1.15,2013-04-27 05:01:00,
2013-04-27 01:07:00,63.8,56.8,30.31,ENE,76,1.0,2.0,78,0.00,,,0.00,Wunderground v.1.15,2013-04-27 05:07:00,
2013-04-27 01:12:00,63.9,57.3,30.31,ENE,78,0.0,1.0,79,0.00,,,0.00,Wunderground v.1.15,2013-04-27 05:12:00,
2013-04-27 01:17:00,63.8,57.2,30.32,ENE,71,0.0,1.0,79,0.00,,,0.00,Wunderground v.1.15,2013-04-27 05:17:00,
2013-04-27 01:23:00,63.6,57.0,30.32,ENE,63,0.0,0.0,79,0.00,,,0.00,Wunderground v.1.15,2013-04-27 05:23:00,
2013-04-27 01:28:00,63.5,56.9,30.32,ENE,64,0.0,0.0,79,0.00,,,0.00,Wunderground v.1.15,2013-04-27 05:28:00,
2013-04-27 01:34:00,63.4,56.4,30.32,ENE,61,0.0,0.0,78,0.00,,,0.00,Wunderground v.1.15,2013-04-27 05:34:00,
2013-04-27 01:39:00,63.2,56.2,30.32,ENE,63,0.0,0.0,78,0.00,,,0.00,Wunderground v.1.15,2013-04-27 05:39:00,
2013-04-27 01:45:00,63.1,56.1,30.32,ENE,63,0.0,0.0,78,0.00,,,0.00,Wunderground v.1.15,2013-04-27 05:45:00,
2013-04-27 01:50:00,63.1,56.1,30.32,ENE,57,0.0,2.0,78,0.00,,,0.00,Wunderground v.1.15,2013-04-27 05:50:00,
2013-04-27 01:55:00,63.1,56.1,30.32,ENE,57,0.0,2.0,78,0.00,,,0.00,Wunderground v.1.15,2013-04-27 05:55:00,
2013-04-27 02:00:00,63.1,56.1,30.32,ENE,57,0.0,0.0,78,0.00,,,0.00,Wunderground v.1.15,2013-04-27 06:00:00,
2013-04-27 02:05:00,63.0,56.0,30.32,NE,56,0.0,1.0,78,0.00,,,0.00,Wunderground v.1.15,2013-04-27 06:05:00,
2013-04-27 02:10:00,63.0,56.0,30.32,NE,55,0.0,0.0,78,0.00,,,0.00,Wunderground v.1.15,2013-04-27 06:10:00,
2013-04-27 02:15:00,62.9,55.9,30.32,NE,56,0.0,1.0,78,0.00,,,0.00,Wunderground v.1.15,2013-04-27 06:15:00,
2013-04-27 02:20:00,63.0,56.0,30.32,NE,55,0.0,3.0,78,0.00,,,0.00,Wunderground v.1.15,2013-04-27 06:20:00,
2013-04-27 02:25:00,62.9,55.9,30.31,NE,55,0.0,3.0,78,0.00,,,0.00,Wunderground v.1.15,2013-04-27 06:25:00,
2013-04-27 02:30:00,62.8,56.2,30.31,NE,55,0.0,0.0,79,0.00,,,0.00,Wunderground v.1.15,2013-04-27 06:30:00,
2013-04-27 02:35:00,62.7,56.4,30.31,NE,54,0.0,0.0,80,0.00,,,0.00,Wunderground v.1.15,2013-04-27 06:35:00,
2013-04-27 02:40:00,62.6,56.3,30.31,NE,53,0.0,0.0,80,0.00,,,0.00,Wunderground v.1.15,2013-04-27 06:40:00,
2013-04-27 02:45:00,62.4,56.5,30.31,NE,52,0.0,0.0,81,0.00,,,0.00,Wunderground v.1.15,2013-04-27 06:45:00,
2013-04-27 02:50:00,62.3,56.4,30.31,NE,53,0.0,0.0,81,0.00,,,0.00,Wunderground v.1.15,2013-04-27 06:50:00,
2013-04-27 02:55:00,62.2,56.6,30.30,NE,54,0.0,0.0,82,0.00,,,0.00,Wunderground v.1.15,2013-04-27 06:55:00,
2013-04-27 03:00:00,62.1,56.5,30.31,NE,53,0.0,0.0,82,0.00,,,0.00,Wunderground v.1.15,2013-04-27 07:00:00,
2013-04-27 03:05:00,62.1,56.5,30.30,NE,53,0.0,0.0,82,0.00,,,0.00,Wunderground v.1.15,2013-04-27 07:05:00,
2013-04-27 03:10:00,62.0,56.8,30.30,NE,53,0.0,0.0,83,0.00,,,0.00,Wunderground v.1.15,2013-04-27 07:10:00,
2013-04-27 03:15:00,61.9,57.0,30.30,NE,53,0.0,0.0,84,0.00,,,0.00,Wunderground v.1.15,2013-04-27 07:15:00,
2013-04-27 03:20:00,61.8,57.2,30.30,NE,52,0.0,0.0,85,0.00,,,0.00,Wunderground v.1.15,2013-04-27 07:20:00,
2013-04-27 03:25:00,61.8,57.2,30.31,NE,52,0.0,1.0,85,0.00,,,0.00,Wunderground v.1.15,2013-04-27 07:25:00,
2013-04-27 03:30:00,61.9,57.0,30.31,NE,51,0.0,0.0,84,0.00,,,0.00,Wunderground v.1.15,2013-04-27 07:30:00,
2013-04-27 03:35:00,62.0,57.1,30.31,NE,49,0.0,1.0,84,0.00,,,0.00,Wunderground v.1.15,2013-04-27 07:35:00,
2013-04-27 03:40:00,61.9,57.0,30.31,NE,42,0.0,3.0,84,0.00,,,0.00,Wunderground v.1.15,2013-04-27 07:40:00,
2013-04-27 03:45:00,61.9,57.0,30.31,NE,42,0.0,3.0,84,0.00,,,0.00,Wunderground v.1.15,2013-04-27 07:45:00,
2013-04-27 03:50:00,61.9,57.0,30.30,NE,42,0.0,0.0,84,0.00,,,0.00,Wunderground v.1.15,2013-04-27 07:50:00,
2013-04-27 03:55:00,61.8,56.9,30.31,NE,41,0.0,0.0,84,0.00,,,0.00,Wunderground v.1.15,2013-04-27 07:55:00,
2013-04-27 04:00:00,61.7,56.8,30.30,NE,42,0.0,0.0,84,0.00,,,0.00,Wunderground v.1.15,2013-04-27 08:00:00,
2013-04-27 04:05:00,61.7,56.8,30.30,NE,41,0.0,1.0,84,0.00,,,0.00,Wunderground v.1.15,2013-04-27 08:05:00,
2013-04-27 04:10:00,61.6,56.7,30.30,NE,42,0.0,0.0,84,0.00,,,0.00,Wunderground v.1.15,2013-04-27 08:10:00,
2013-04-27 04:15:00,61.6,56.7,30.30,NE,42,0.0,1.0,84,0.00,,,0.00,Wunderground v.1.15,2013-04-27 08:15:00,
2013-04-27 04:20:00,61.7,56.8,30.31,NE,43,0.0,0.0,84,0.00,,,0.00,Wunderground v.1.15,2013-04-27 08:20:00,
2013-04-27 04:25:00,61.7,56.5,30.30,NE,42,0.0,0.0,83,0.00,,,0.00,Wunderground v.1.15,2013-04-27 08:25:00,
2013-04-27 04:30:00,61.7,56.5,30.30,NE,43,0.0,0.0,83,0.00,,,0.00,Wunderground v.1.15,2013-04-27 08:30:00,
2013-04-27 04:35:00,61.6,56.7,30.30,NE,40,0.0,1.0,84,0.00,,,0.00,Wunderground v.1.15,2013-04-27 08:35:00,
2013-04-27 04:40:00,61.6,56.7,30.30,NE,41,0.0,1.0,84,0.00,,,0.00,Wunderground v.1.15,2013-04-27 08:40:00,
2013-04-27 04:45:00,61.5,56.6,30.30,NE,41,0.0,1.0,84,0.00,,,0.00,Wunderground v.1.15,2013-04-27 08:45:00,
2013-04-27 04:50:00,61.4,56.8,30.30,NE,36,0.0,0.0,85,0.00,,,0.00,Wunderground v.1.15,2013-04-27 08:50:00,
2013-04-27 04:55:00,61.4,56.8,30.30,NE,39,0.0,4.0,85,0.00,,,0.00,Wunderground v.1.15,2013-04-27 08:55:00,
2013-04-27 05:00:00,61.4,56.8,30.31,NE,38,0.0,4.0,85,0.00,,,0.00,Wunderground v.1.15,2013-04-27 09:00:00,
2013-04-27 05:05:00,61.5,56.6,30.30,NE,40,0.0,4.0,84,0.00,,,0.00,Wunderground v.1.15,2013-04-27 09:05:00,
2013-04-27 05:10:00,61.4,56.5,30.30,NE,41,0.0,0.0,84,0.00,,,0.00,Wunderground v.1.15,2013-04-27 09:10:00,
2013-04-27 05:15:00,61.4,56.5,30.31,NE,39,0.0,3.0,84,0.00,,,0.00,Wunderground v.1.15,2013-04-27 09:15:00,
2013-04-27 05:20:00,61.2,56.7,30.31,NNE,19,0.0,1.0,85,0.00,,,0.00,Wunderground v.1.15,2013-04-27 09:20:00,
2013-04-27 05:25:00,60.8,56.6,30.31,NNE,19,0.0,3.0,86,0.00,,,0.00,Wunderground v.1.15,2013-04-27 09:25:00,
2013-04-27 05:30:00,60.5,56.6,30.30,NNE,17,0.0,4.0,87,0.00,,,0.00,Wunderground v.1.15,2013-04-27 09:30:00,
2013-04-27 05:35:00,60.3,56.7,30.29,NNE,21,0.0,4.0,88,0.00,,,0.00,Wunderground v.1.15,2013-04-27 09:35:00,
2013-04-27 05:40:00,60.1,56.5,30.29,NNE,22,0.0,0.0,88,0.00,,,0.00,Wunderground v.1.15,2013-04-27 09:40:00,
2013-04-27 05:45:00,60.0,56.7,30.30,NNE,22,0.0,0.0,89,0.00,,,0.00,Wunderground v.1.15,2013-04-27 09:45:00,
2013-04-27 05:50:00,60.1,56.8,30.30,NNE,22,0.0,0.0,89,0.00,,,0.00,Wunderground v.1.15,2013-04-27 09:50:00,
2013-04-27 05:55:00,60.3,56.7,30.29,NNE,30,0.0,5.0,88,0.00,,,0.00,Wunderground v.1.15,2013-04-27 09:55:00,
2013-04-27 06:00:00,60.5,56.9,30.29,NNE,21,0.0,4.0,88,0.00,,,0.00,Wunderground v.1.15,2013-04-27 10:00:00,
2013-04-27 06:06:00,60.6,57.0,30.30,NNE,22,0.0,6.0,88,0.00,,,0.00,Wunderground v.1.15,2013-04-27 10:06:00,
2013-04-27 06:11:00,60.8,57.2,30.30,NNE,21,0.0,1.0,88,0.00,,,0.00,Wunderground v.1.15,2013-04-27 10:11:00,
2013-04-27 06:16:00,60.9,57.0,30.30,NNE,29,0.0,1.0,87,0.00,,,0.00,Wunderground v.1.15,2013-04-27 10:16:00,
2013-04-27 06:21:00,61.0,57.1,30.31,NNE,25,0.0,6.0,87,0.00,,,0.00,Wunderground v.1.15,2013-04-27 10:21:00,
2013-04-27 06:26:00,61.1,57.2,30.31,North,350,4.0,7.0,87,0.00,,,0.00,Wunderground v.1.15,2013-04-27 10:26:00,
2013-04-27 06:31:00,61.2,57.3,30.32,NNE,12,0.0,6.0,87,0.00,,,0.00,Wunderground v.1.15,2013-04-27 10:31:00,
2013-04-27 06:36:00,61.2,57.0,30.32,North,9,1.0,7.0,86,0.00,,,0.00,Wunderground v.1.15,2013-04-27 10:36:00,
2013-04-27 06:41:00,60.9,57.0,30.32,North,5,0.0,5.0,87,0.00,,,0.00,Wunderground v.1.15,2013-04-27 10:41:00,
2013-04-27 06:46:00,60.8,56.9,30.32,NE,37,0.0,5.0,87,0.00,,,0.00,Wunderground v.1.15,2013-04-27 10:46:00,
2013-04-27 06:51:00,60.7,56.8,30.32,NNE,21,0.0,5.0,87,0.00,,,0.00,Wunderground v.1.15,2013-04-27 10:51:00,
2013-04-27 06:56:00,60.8,56.9,30.32,NNE,19,5.0,6.0,87,0.00,,,0.00,Wunderground v.1.15,2013-04-27 10:56:00,
2013-04-27 07:01:00,61.0,56.8,30.32,NNE,24,0.0,0.0,86,0.00,,,0.00,Wunderground v.1.15,2013-04-27 11:01:00,
2013-04-27 07:06:00,61.1,56.9,30.32,NNE,23,0.0,1.0,86,0.00,,,0.00,Wunderground v.1.15,2013-04-27 11:06:00,
2013-04-27 07:11:00,61.2,57.0,30.32,NE,36,0.0,0.0,86,0.00,,,0.00,Wunderground v.1.15,2013-04-27 11:11:00,
2013-04-27 07:16:00,61.4,57.2,30.32,NE,35,4.0,7.0,86,0.00,,,0.00,Wunderground v.1.15,2013-04-27 11:16:00,
2013-04-27 07:21:00,61.4,57.2,30.33,NNE,32,0.0,1.0,86,0.00,,,0.00,Wunderground v.1.15,2013-04-27 11:21:00,
2013-04-27 07:26:00,61.5,57.3,30.33,NNE,19,0.0,2.0,86,0.00,,,0.00,Wunderground v.1.15,2013-04-27 11:26:00,
2013-04-27 07:31:00,61.5,57.3,30.32,NNE,24,0.0,5.0,86,0.00,,,0.00,Wunderground v.1.15,2013-04-27 11:31:00,
2013-04-27 07:36:00,61.6,57.4,30.33,NNE,30,0.0,5.0,86,0.00,,,0.00,Wunderground v.1.15,2013-04-27 11:36:00,
2013-04-27 07:41:00,61.6,57.4,30.33,NNE,28,0.0,2.0,86,0.00,,,0.00,Wunderground v.1.15,2013-04-27 11:41:00,
2013-04-27 07:46:00,61.7,57.5,30.33,NNE,28,0.0,6.0,86,0.00,,,0.00,Wunderground v.1.15,2013-04-27 11:46:00,
2013-04-27 07:51:00,61.7,57.5,30.32,NE,42,0.0,0.0,86,0.00,,,0.00,Wunderground v.1.15,2013-04-27 11:51:00,
2013-04-27 07:56:00,61.9,57.3,30.32,NE,56,0.0,7.0,85,0.00,,,0.00,Wunderground v.1.15,2013-04-27 11:56:00,
2013-04-27 08:01:00,62.0,57.1,30.32,ENE,78,0.0,6.0,84,0.00,,,0.00,Wunderground v.1.15,2013-04-27 12:01:00,
2013-04-27 08:06:00,62.3,57.4,30.32,ENE,63,1.0,6.0,84,0.00,,,0.00,Wunderground v.1.15,2013-04-27 12:06:00,
2013-04-27 08:11:00,62.8,57.6,30.33,ENE,64,2.0,6.0,83,0.00,,,0.00,Wunderground v.1.15,2013-04-27 12:11:00,
2013-04-27 08:16:00,63.1,57.5,30.33,ENE,67,0.0,6.0,82,0.00,,,0.00,Wunderground v.1.15,2013-04-27 12:16:00,
2013-04-27 08:21:00,63.3,57.4,30.34,ENE,65,0.0,1.0,81,0.00,,,0.00,Wunderground v.1.15,2013-04-27 12:21:00,
2013-04-27 08:26:00,63.4,57.5,30.34,NE,45,0.0,4.0,81,0.00,,,0.00,Wunderground v.1.15,2013-04-27 12:26:00,
2013-04-27 08:31:00,63.5,57.6,30.34,NNE,33,0.0,4.0,81,0.00,,,0.00,Wunderground v.1.15,2013-04-27 12:31:00,
2013-04-27 08:36:00,63.7,57.8,30.34,NNE,32,0.0,4.0,81,0.00,,,0.00,Wunderground v.1.15,2013-04-27 12:36:00,
2013-04-27 08:41:00,63.6,57.7,30.34,North,360,2.0,6.0,81,0.00,,,0.00,Wunderground v.1.15,2013-04-27 12:41:00,
2013-04-27 08:46:00,63.4,57.8,30.34,NNW,348,2.0,7.0,82,0.00,,,0.00,Wunderground v.1.15,2013-04-27 12:46:00,
2013-04-27 08:51:00,63.3,58.0,30.35,NNW,347,0.0,4.0,83,0.00,,,0.00,Wunderground v.1.15,2013-04-27 12:51:00,
2013-04-27 08:56:00,63.2,57.9,30.35,North,360,0.0,5.0,83,0.00,,,0.00,Wunderground v.1.15,2013-04-27 12:56:00,
2013-04-27 09:01:00,63.2,57.6,30.34,ENE,72,0.0,1.0,82,0.00,,,0.00,Wunderground v.1.15,2013-04-27 13:01:00,
2013-04-27 09:06:00,63.3,58.0,30.34,ENE,59,0.0,6.0,83,0.00,,,0.00,Wunderground v.1.15,2013-04-27 13:06:00,
2013-04-27 09:11:00,63.4,58.1,30.34,NE,47,0.0,2.0,83,0.00,,,0.00,Wunderground v.1.15,2013-04-27 13:11:00,
2013-04-27 09:16:00,63.3,58.0,30.34,NE,46,0.0,2.0,83,0.00,,,0.00,Wunderground v.1.15,2013-04-27 13:16:00,
2013-04-27 09:21:00,63.3,58.0,30.34,NE,40,0.0,2.0,83,0.00,,,0.00,Wunderground v.1.15,2013-04-27 13:21:00,
2013-04-27 09:26:00,63.5,58.2,30.34,NE,38,0.0,2.0,83,0.00,,,0.00,Wunderground v.1.15,2013-04-27 13:26:00,
2013-04-27 09:31:00,63.7,58.4,30.34,NNE,13,0.0,5.0,83,0.00,,,0.00,Wunderground v.1.15,2013-04-27 13:31:00,
2013-04-27 09:36:00,63.9,59.0,30.34,NNE,13,0.0,5.0,84,0.00,,,0.00,Wunderground v.1.15,2013-04-27 13:36:00,
2013-04-27 09:41:00,64.3,59.0,30.33,NE,44,0.0,1.0,83,0.00,,,0.00,Wunderground v.1.15,2013-04-27 13:41:00,
2013-04-27 09:48:00,65.0,58.3,30.32,East,85,5.0,8.0,79,0.00,,,0.00,Wunderground v.1.15,2013-04-27 13:48:00,
2013-04-27 09:53:00,65.3,59.0,30.32,East,82,1.0,5.0,80,0.00,,,0.00,Wunderground v.1.15,2013-04-27 13:53:00,
2013-04-27 09:58:00,65.6,58.2,30.32,ENE,68,0.0,6.0,77,0.00,,,0.00,Wunderground v.1.15,2013-04-27 13:58:00,
2013-04-27 10:03:00,65.8,58.4,30.32,ENE,63,0.0,3.0,77,0.00,,,0.00,Wunderground v.1.15,2013-04-27 14:03:00,
2013-04-27 10:08:00,66.3,58.5,30.32,ENE,62,0.0,5.0,76,0.00,,,0.00,Wunderground v.1.15,2013-04-27 14:08:00,
2013-04-27 10:13:00,66.9,59.1,30.31,East,98,0.0,6.0,76,0.00,,,0.00,Wunderground v.1.15,2013-04-27 14:13:00,
2013-04-27 10:18:00,67.1,58.5,30.31,SE,136,6.0,10.0,74,0.00,,,0.00,Wunderground v.1.15,2013-04-27 14:18:00,
2013-04-27 10:23:00,67.2,58.6,30.31,ESE,110,6.0,10.0,74,0.00,,,0.00,Wunderground v.1.15,2013-04-27 14:23:00,
2013-04-27 10:28:00,67.4,59.2,30.32,ENE,62,2.0,10.0,75,0.00,,,0.00,Wunderground v.1.15,2013-04-27 14:28:00,
2013-04-27 10:33:00,67.7,59.1,30.32,East,79,0.0,5.0,74,0.00,,,0.00,Wunderground v.1.15,2013-04-27 14:33:00,
2013-04-27 10:38:00,67.9,58.1,30.32,East,96,8.0,9.0,71,0.00,,,0.00,Wunderground v.1.15,2013-04-27 14:38:00,
2013-04-27 10:43:00,68.1,58.3,30.31,East,94,7.0,10.0,71,0.00,,,0.00,Wunderground v.1.15,2013-04-27 14:43:00,
2013-04-27 10:48:00,68.2,57.6,30.31,ESE,105,1.0,11.0,69,0.00,,,0.00,Wunderground v.1.15,2013-04-27 14:48:00,
2013-04-27 10:53:00,68.4,57.4,30.31,ESE,113,5.0,10.0,68,0.00,,,0.00,Wunderground v.1.15,2013-04-27 14:53:00,
2013-04-27 10:58:00,68.7,56.0,30.31,SE,132,7.0,10.0,64,0.00,,,0.00,Wunderground v.1.15,2013-04-27 14:58:00,
2013-04-27 11:03:00,68.9,55.8,30.30,East,83,9.0,13.0,63,0.00,,,0.00,Wunderground v.1.15,2013-04-27 15:03:00,
2013-04-27 11:08:00,69.1,55.1,30.30,ENE,76,9.0,13.0,61,0.00,,,0.00,Wunderground v.1.15,2013-04-27 15:08:00,
2013-04-27 11:13:00,69.3,54.8,30.30,East,94,7.0,12.0,60,0.00,,,0.00,Wunderground v.1.15,2013-04-27 15:13:00,
2013-04-27 11:18:00,69.5,54.5,30.30,ESE,115,7.0,13.0,59,0.00,,,0.00,Wunderground v.1.15,2013-04-27 15:18:00,
2013-04-27 11:23:00,69.2,53.8,30.30,East,89,11.0,15.0,58,0.00,,,0.00,Wunderground v.1.15,2013-04-27 15:23:00,
2013-04-27 11:28:00,69.4,54.0,30.29,East,87,5.0,15.0,58,0.00,,,0.00,Wunderground v.1.15,2013-04-27 15:28:00,
2013-04-27 11:33:00,69.8,53.9,30.30,ESE,104,11.0,14.0,57,0.00,,,0.00,Wunderground v.1.15,2013-04-27 15:33:00,
2013-04-27 11:38:00,69.9,53.5,30.31,ENE,76,6.0,14.0,56,0.00,,,0.00,Wunderground v.1.15,2013-04-27 15:38:00,
2013-04-27 11:43:00,70.1,54.2,30.31,ESE,109,6.0,13.0,57,0.00,,,0.00,Wunderground v.1.15,2013-04-27 15:43:00,
2013-04-27 11:48:00,70.6,54.1,30.32,East,95,7.0,13.0,56,0.00,,,0.00,Wunderground v.1.15,2013-04-27 15:48:00,
2013-04-27 11:53:00,71.0,54.5,30.32,East,81,9.0,9.0,56,0.00,,,0.00,Wunderground v.1.15,2013-04-27 15:53:00,
2013-04-27 11:58:00,70.9,54.4,30.32,East,92,12.0,12.0,56,0.00,,,0.00,Wunderground v.1.15,2013-04-27 15:58:00,
2013-04-27 12:03:00,70.4,55.4,30.32,ENE,67,3.0,13.0,59,0.00,,,0.00,Wunderground v.1.15,2013-04-27 16:03:00,
2013-04-27 12:08:00,70.6,55.6,30.32,NE,38,8.0,13.0,59,0.00,,,0.00,Wunderground v.1.15,2013-04-27 16:08:00,
2013-04-27 12:13:00,70.4,55.4,30.31,East,84,5.0,10.0,59,0.00,,,0.00,Wunderground v.1.15,2013-04-27 16:13:00,
2013-04-27 12:18:00,70.9,55.4,30.31,ENE,57,8.0,12.0,58,0.00,,,0.00,Wunderground v.1.15,2013-04-27 16:18:00,
2013-04-27 12:23:00,71.0,54.5,30.31,East,101,10.0,13.0,56,0.00,,,0.00,Wunderground v.1.15,2013-04-27 16:23:00,
2013-04-27 12:28:00,70.9,55.4,30.31,NE,48,7.0,14.0,58,0.00,,,0.00,Wunderground v.1.15,2013-04-27 16:28:00,
2013-04-27 12:33:00,71.1,55.6,30.31,NE,53,5.0,12.0,58,0.00,,,0.00,Wunderground v.1.15,2013-04-27 16:33:00,
2013-04-27 12:38:00,71.1,55.1,30.31,ESE,118,10.0,12.0,57,0.00,,,0.00,Wunderground v.1.15,2013-04-27 16:38:00,
2013-04-27 12:43:00,71.0,55.0,30.31,ENE,67,7.0,12.0,57,0.00,,,0.00,Wunderground v.1.15,2013-04-27 16:43:00,
2013-04-27 12:48:00,70.8,55.3,30.31,NNE,16,2.0,13.0,58,0.00,,,0.00,Wunderground v.1.15,2013-04-27 16:48:00,
2013-04-27 12:53:00,70.9,54.9,30.30,East,98,11.0,13.0,57,0.00,,,0.00,Wunderground v.1.15,2013-04-27 16:53:00,
2013-04-27 12:58:00,70.7,54.7,30.31,ESE,110,5.0,8.0,57,0.00,,,0.00,Wunderground v.1.15,2013-04-27 16:58:00,
2013-04-27 13:03:00,70.9,54.9,30.30,ENE,65,8.0,13.0,57,0.00,,,0.00,Wunderground v.1.15,2013-04-27 17:03:00,
2013-04-27 13:08:00,71.3,55.3,30.30,East,83,9.0,12.0,57,0.00,,,0.00,Wunderground v.1.15,2013-04-27 17:08:00,
2013-04-27 13:14:00,71.1,55.1,30.30,East,86,12.0,12.0,57,0.00,,,0.00,Wunderground v.1.15,2013-04-27 17:14:00,
2013-04-27 13:19:00,71.0,55.0,30.31,East,84,12.0,15.0,57,0.00,,,0.00,Wunderground v.1.15,2013-04-27 17:19:00,
2013-04-27 13:24:00,70.7,54.7,30.31,East,85,5.0,15.0,57,0.00,,,0.00,Wunderground v.1.15,2013-04-27 17:24:00,
2013-04-27 13:29:00,71.2,55.2,30.31,ENE,75,5.0,11.0,57,0.00,,,0.00,Wunderground v.1.15,2013-04-27 17:29:00,
2013-04-27 13:34:00,71.1,55.1,30.31,East,84,9.0,13.0,57,0.00,,,0.00,Wunderground v.1.15,2013-04-27 17:34:00,
2013-04-27 13:39:00,71.1,54.6,30.30,ENE,59,7.0,12.0,56,0.00,,,0.00,Wunderground v.1.15,2013-04-27 17:39:00,
2013-04-27 13:44:00,71.3,54.8,30.30,East,83,10.0,12.0,56,0.00,,,0.00,Wunderground v.1.15,2013-04-27 17:44:00,
2013-04-27 13:49:00,71.7,53.7,30.30,ENE,69,6.0,9.0,53,0.00,,,0.00,Wunderground v.1.15,2013-04-27 17:49:00,
2013-04-27 13:54:00,71.6,54.1,30.30,East,86,8.0,15.0,54,0.00,,,0.00,Wunderground v.1.15,2013-04-27 17:54:00,
2013-04-27 13:59:00,71.6,53.0,30.30,ESE,113,12.0,12.0,52,0.00,,,0.00,Wunderground v.1.15,2013-04-27 17:59:00,
2013-04-27 14:04:00,71.7,54.2,30.30,East,95,8.0,13.0,54,0.00,,,0.00,Wunderground v.1.15,2013-04-27 18:04:00,
2013-04-27 14:09:00,71.6,54.6,30.29,ENE,68,2.0,12.0,55,0.00,,,0.00,Wunderground v.1.15,2013-04-27 18:09:00,
2013-04-27 14:14:00,71.5,54.0,30.29,East,90,12.0,16.0,54,0.00,,,0.00,Wunderground v.1.15,2013-04-27 18:14:00,
2013-04-27 14:19:00,71.6,54.1,30.29,ESE,105,8.0,9.0,54,0.00,,,0.00,Wunderground v.1.15,2013-04-27 18:19:00,
2013-04-27 14:24:00,72.0,53.4,30.29,NE,53,10.0,15.0,52,0.00,,,0.00,Wunderground v.1.15,2013-04-27 18:24:00,
2013-04-27 14:29:00,72.1,54.0,30.29,East,98,9.0,13.0,53,0.00,,,0.00,Wunderground v.1.15,2013-04-27 18:29:00,
2013-04-27 14:34:00,72.1,54.0,30.29,East,82,10.0,13.0,53,0.00,,,0.00,Wunderground v.1.15,2013-04-27 18:34:00,
2013-04-27 14:39:00,71.9,53.3,30.29,East,86,7.0,10.0,52,0.00,,,0.00,Wunderground v.1.15,2013-04-27 18:39:00,
2013-04-27 14:44:00,71.6,52.5,30.29,ENE,63,11.0,16.0,51,0.00,,,0.00,Wunderground v.1.15,2013-04-27 18:44:00,
2013-04-27 14:49:00,71.8,52.2,30.29,ESE,123,9.0,14.0,50,0.00,,,0.00,Wunderground v.1.15,2013-04-27 18:49:00,
2013-04-27 14:54:00,72.0,52.3,30.29,East,84,8.0,14.0,50,0.00,,,0.00,Wunderground v.1.15,2013-04-27 18:54:00,
2013-04-27 15:00:00,72.1,52.4,30.28,ENE,71,9.0,11.0,50,0.00,,,0.00,Wunderground v.1.15,2013-04-27 19:00:00,
2013-04-27 15:05:00,71.8,51.6,30.28,East,92,5.0,12.0,49,0.00,,,0.00,Wunderground v.1.15,2013-04-27 19:05:00,
2013-04-27 15:10:00,71.7,51.0,30.28,ENE,65,9.0,9.0,48,0.00,,,0.00,Wunderground v.1.15,2013-04-27 19:10:00,
2013-04-27 15:15:00,71.5,51.3,30.28,ENE,74,4.0,13.0,49,0.00,,,0.00,Wunderground v.1.15,2013-04-27 19:15:00,
2013-04-27 15:20:00,72.0,50.7,30.28,East,79,10.0,14.0,47,0.00,,,0.00,Wunderground v.1.15,2013-04-27 19:20:00,
2013-04-27 15:25:00,72.3,50.9,30.28,East,99,12.0,14.0,47,0.00,,,0.00,Wunderground v.1.15,2013-04-27 19:25:00,
2013-04-27 15:30:00,72.1,50.8,30.28,ESE,114,10.0,10.0,47,0.00,,,0.00,Wunderground v.1.15,2013-04-27 19:30:00,
2013-04-27 15:35:00,72.4,49.3,30.28,ENE,69,13.0,18.0,44,0.00,,,0.00,Wunderground v.1.15,2013-04-27 19:35:00,
2013-04-27 15:40:00,72.1,49.6,30.28,East,87,11.0,12.0,45,0.00,,,0.00,Wunderground v.1.15,2013-04-27 19:40:00,
2013-04-27 15:45:00,72.5,49.9,30.27,East,84,10.0,13.0,45,0.00,,,0.00,Wunderground v.1.15,2013-04-27 19:45:00,
2013-04-27 15:50:00,72.4,49.3,30.27,ENE,57,7.0,11.0,44,0.00,,,0.00,Wunderground v.1.15,2013-04-27 19:50:00,
2013-04-27 15:55:00,72.6,48.8,30.27,ESE,111,10.0,12.0,43,0.00,,,0.00,Wunderground v.1.15,2013-04-27 19:55:00,
2013-04-27 16:00:00,72.5,48.7,30.27,East,89,6.0,13.0,43,0.00,,,0.00,Wunderground v.1.15,2013-04-27 20:00:00,
2013-04-27 16:05:00,72.4,49.9,30.27,ENE,76,11.0,13.0,45,0.00,,,0.00,Wunderground v.1.15,2013-04-27 20:05:00,
2013-04-27 16:10:00,72.0,49.5,30.27,ESE,107,9.0,15.0,45,0.00,,,0.00,Wunderground v.1.15,2013-04-27 20:10:00,
2013-04-27 16:15:00,71.7,48.6,30.27,ENE,63,4.0,15.0,44,0.00,,,0.00,Wunderground v.1.15,2013-04-27 20:15:00,
2013-04-27 16:20:00,72.2,49.1,30.26,ENE,61,11.0,11.0,44,0.00,,,0.00,Wunderground v.1.15,2013-04-27 20:20:00,
2013-04-27 16:25:00,72.4,50.4,30.26,ESE,123,8.0,14.0,46,0.00,,,0.00,Wunderground v.1.15,2013-04-27 20:25:00,
2013-04-27 16:30:00,71.9,49.4,30.26,East,86,16.0,16.0,45,0.00,,,0.00,Wunderground v.1.15,2013-04-27 20:30:00,
2013-04-27 16:35:00,71.9,50.0,30.26,East,86,7.0,16.0,46,0.00,,,0.00,Wunderground v.1.15,2013-04-27 20:35:00,
2013-04-27 16:40:00,71.6,47.9,30.26,East,92,13.0,15.0,43,0.00,,,0.00,Wunderground v.1.15,2013-04-27 20:40:00,
2013-04-27 16:45:00,71.4,46.5,30.26,East,92,12.0,15.0,41,0.00,,,0.00,Wunderground v.1.15,2013-04-27 20:45:00,
2013-04-27 16:50:00,71.5,47.8,30.26,East,82,12.0,13.0,43,0.00,,,0.00,Wunderground v.1.15,2013-04-27 20:50:00,
2013-04-27 16:55:00,71.2,46.9,30.26,ENE,67,6.0,14.0,42,0.00,,,0.00,Wunderground v.1.15,2013-04-27 20:55:00,
2013-04-27 17:00:00,70.9,46.7,30.26,ENE,78,9.0,14.0,42,0.00,,,0.00,Wunderground v.1.15,2013-04-27 21:00:00,
2013-04-27 17:05:00,71.0,42.7,30.26,East,86,6.0,15.0,36,0.00,,,0.00,Wunderground v.1.15,2013-04-27 21:05:00,
2013-04-27 17:10:00,71.6,44.6,30.26,East,88,6.0,12.0,38,0.00,,,0.00,Wunderground v.1.15,2013-04-27 21:10:00,
2013-04-27 17:15:00,71.5,45.2,30.26,East,80,15.0,16.0,39,0.00,,,0.00,Wunderground v.1.15,2013-04-27 21:15:00,
2013-04-27 17:21:00,71.4,45.8,30.26,East,88,13.0,16.0,40,0.00,,,0.00,Wunderground v.1.15,2013-04-27 21:21:00,
2013-04-27 17:26:00,71.2,45.6,30.26,East,82,16.0,18.0,40,0.00,,,0.00,Wunderground v.1.15,2013-04-27 21:26:00,
2013-04-27 17:31:00,70.5,46.3,30.26,East,93,15.0,18.0,42,0.00,,,0.00,Wunderground v.1.15,2013-04-27 21:31:00,
2013-04-27 17:36:00,70.1,47.8,30.27,East,95,10.0,18.0,45,0.00,,,0.00,Wunderground v.1.15,2013-04-27 21:36:00,
2013-04-27 17:41:00,70.0,45.8,30.27,ENE,69,11.0,16.0,42,0.00,,,0.00,Wunderground v.1.15,2013-04-27 21:41:00,
2013-04-27 17:46:00,69.9,47.0,30.27,NE,43,1.0,16.0,44,0.00,,,0.00,Wunderground v.1.15,2013-04-27 21:46:00,
2013-04-27 17:51:00,70.0,48.3,30.27,East,88,11.0,13.0,46,0.00,,,0.00,Wunderground v.1.15,2013-04-27 21:51:00,
2013-04-27 17:56:00,69.8,48.7,30.27,ENE,71,7.0,13.0,47,0.00,,,0.00,Wunderground v.1.15,2013-04-27 21:56:00,
2013-04-27 18:01:00,69.4,48.9,30.27,East,88,9.0,12.0,48,0.00,,,0.00,Wunderground v.1.15,2013-04-27 22:01:00,
2013-04-27 18:06:00,69.3,50.4,30.27,East,84,12.0,15.0,51,0.00,,,0.00,Wunderground v.1.15,2013-04-27 22:06:00,
2013-04-27 18:11:00,69.4,51.0,30.27,East,90,5.0,10.0,52,0.00,,,0.00,Wunderground v.1.15,2013-04-27 22:11:00,
2013-04-27 18:16:00,69.4,52.0,30.27,East,80,8.0,15.0,54,0.00,,,0.00,Wunderground v.1.15,2013-04-27 22:16:00,
2013-04-27 18:21:00,68.9,52.1,30.27,East,91,4.0,10.0,55,0.00,,,0.00,Wunderground v.1.15,2013-04-27 22:21:00,
2013-04-27 18:26:00,68.7,51.4,30.27,East,84,7.0,15.0,54,0.00,,,0.00,Wunderground v.1.15,2013-04-27 22:26:00,
2013-04-27 18:31:00,68.6,51.8,30.27,East,90,6.0,11.0,55,0.00,,,0.00,Wunderground v.1.15,2013-04-27 22:31:00,
2013-04-27 18:36:00,68.3,52.0,30.27,ESE,111,6.0,12.0,56,0.00,,,0.00,Wunderground v.1.15,2013-04-27 22:36:00,
2013-04-27 18:41:00,68.2,52.4,30.27,NE,54,7.0,12.0,57,0.00,,,0.00,Wunderground v.1.15,2013-04-27 22:41:00,
2013-04-27 18:46:00,67.9,51.6,30.27,East,87,7.0,14.0,56,0.00,,,0.00,Wunderground v.1.15,2013-04-27 22:46:00,
2013-04-27 18:51:00,67.8,50.0,30.27,NE,55,11.0,16.0,53,0.00,,,0.00,Wunderground v.1.15,2013-04-27 22:51:00,
2013-04-27 18:56:00,67.7,49.4,30.27,ENE,72,13.0,16.0,52,0.00,,,0.00,Wunderground v.1.15,2013-04-27 22:56:00,
2013-04-27 19:01:00,67.6,49.9,30.28,ENE,68,11.0,14.0,53,0.00,,,0.00,Wunderground v.1.15,2013-04-27 23:01:00,
2013-04-27 19:06:00,67.6,50.4,30.28,ENE,67,12.0,14.0,54,0.00,,,0.00,Wunderground v.1.15,2013-04-27 23:06:00,
2013-04-27 19:11:00,67.5,51.2,30.28,ENE,76,5.0,7.0,56,0.00,,,0.00,Wunderground v.1.15,2013-04-27 23:11:00,
2013-04-27 19:16:00,67.4,51.6,30.28,East,82,3.0,12.0,57,0.00,,,0.00,Wunderground v.1.15,2013-04-27 23:16:00,
2013-04-27 19:21:00,67.3,52.0,30.27,East,82,9.0,11.0,58,0.00,,,0.00,Wunderground v.1.15,2013-04-27 23:21:00,
2013-04-27 19:26:00,67.1,52.3,30.27,ENE,74,8.0,14.0,59,0.00,,,0.00,Wunderground v.1.15,2013-04-27 23:26:00,
2013-04-27 19:31:00,66.9,52.1,30.27,East,82,8.0,11.0,59,0.00,,,0.00,Wunderground v.1.15,2013-04-27 23:31:00,
2013-04-27 19:36:00,66.8,52.0,30.27,East,93,8.0,12.0,59,0.00,,,0.00,Wunderground v.1.15,2013-04-27 23:36:00,
2013-04-27 19:41:00,66.8,52.5,30.27,East,83,6.0,8.0,60,0.00,,,0.00,Wunderground v.1.15,2013-04-27 23:41:00,
2013-04-27 19:46:00,66.7,52.4,30.27,ENE,59,4.0,11.0,60,0.00,,,0.00,Wunderground v.1.15,2013-04-27 23:46:00,
2013-04-27 19:51:00,66.6,52.3,30.27,NE,34,10.0,12.0,60,0.00,,,0.00,Wunderground v.1.15,2013-04-27 23:51:00,
2013-04-27 19:56:00,66.5,52.2,30.27,East,80,0.0,12.0,60,0.00,,,0.00,Wunderground v.1.15,2013-04-27 23:56:00,
2013-04-27 20:01:00,66.5,52.6,30.27,East,88,9.0,9.0,61,0.00,,,0.00,Wunderground v.1.15,2013-04-28 00:01:00,
2013-04-27 20:06:00,66.4,52.5,30.27,East,92,6.0,10.0,61,0.00,,,0.00,Wunderground v.1.15,2013-04-28 00:06:00,
2013-04-27 20:11:00,66.3,52.9,30.26,East,85,7.0,11.0,62,0.00,,,0.00,Wunderground v.1.15,2013-04-28 00:11:00,
2013-04-27 20:16:00,66.2,52.8,30.26,East,90,0.0,11.0,62,0.00,,,0.00,Wunderground v.1.15,2013-04-28 00:16:00,
2013-04-27 20:21:00,66.2,53.2,30.26,East,92,5.0,6.0,63,0.00,,,0.00,Wunderground v.1.15,2013-04-28 00:21:00,
2013-04-27 20:26:00,66.0,52.6,30.26,ENE,74,0.0,12.0,62,0.00,,,0.00,Wunderground v.1.15,2013-04-28 00:26:00,
2013-04-27 20:31:00,65.9,52.5,30.26,ENE,57,5.0,11.0,62,0.00,,,0.00,Wunderground v.1.15,2013-04-28 00:31:00,
2013-04-27 20:36:00,65.9,52.5,30.26,ENE,60,0.0,11.0,62,0.00,,,0.00,Wunderground v.1.15,2013-04-28 00:36:00,
2013-04-27 20:41:00,65.8,52.4,30.25,East,80,9.0,11.0,62,0.00,,,0.00,Wunderground v.1.15,2013-04-28 00:41:00,
2013-04-27 20:46:00,65.8,52.4,30.25,ENE,74,7.0,11.0,62,0.00,,,0.00,Wunderground v.1.15,2013-04-28 00:46:00,
2013-04-27 20:51:00,65.7,51.9,30.26,East,80,0.0,10.0,61,0.00,,,0.00,Wunderground v.1.15,2013-04-28 00:51:00,
2013-04-27 20:56:00,65.7,51.9,30.26,ENE,67,5.0,11.0,61,0.00,,,0.00,Wunderground v.1.15,2013-04-28 00:56:00,
2013-04-27 21:01:00,65.5,51.2,30.26,East,79,0.0,13.0,60,0.00,,,0.00,Wunderground v.1.15,2013-04-28 01:01:00,
2013-04-27 21:06:00,65.5,51.2,30.26,ENE,68,0.0,13.0,60,0.00,,,0.00,Wunderground v.1.15,2013-04-28 01:06:00,
2013-04-27 21:11:00,65.4,50.7,30.26,NE,51,3.0,9.0,59,0.00,,,0.00,Wunderground v.1.15,2013-04-28 01:11:00,
2013-04-27 21:16:00,65.5,50.3,30.26,ENE,67,8.0,11.0,58,0.00,,,0.00,Wunderground v.1.15,2013-04-28 01:16:00,
2013-04-27 21:21:00,65.6,50.0,30.26,East,79,4.0,8.0,57,0.00,,,0.00,Wunderground v.1.15,2013-04-28 01:21:00,
2013-04-27 21:26:00,65.6,50.0,30.25,East,82,2.0,8.0,57,0.00,,,0.00,Wunderground v.1.15,2013-04-28 01:26:00,
2013-04-27 21:31:00,65.6,50.0,30.25,ENE,58,0.0,6.0,57,0.00,,,0.00,Wunderground v.1.15,2013-04-28 01:31:00,
2013-04-27 21:36:00,65.5,50.3,30.26,East,90,1.0,7.0,58,0.00,,,0.00,Wunderground v.1.15,2013-04-28 01:36:00,
2013-04-27 21:42:00,65.5,50.8,30.25,ENE,74,0.0,9.0,59,0.00,,,0.00,Wunderground v.1.15,2013-04-28 01:42:00,
2013-04-27 21:47:00,65.4,51.1,30.26,NE,53,1.0,9.0,60,0.00,,,0.00,Wunderground v.1.15,2013-04-28 01:47:00,
2013-04-27 21:52:00,65.3,51.5,30.26,ENE,77,0.0,7.0,61,0.00,,,0.00,Wunderground v.1.15,2013-04-28 01:52:00,
2013-04-27 21:57:00,65.2,51.8,30.26,East,81,4.0,8.0,62,0.00,,,0.00,Wunderground v.1.15,2013-04-28 01:57:00,
2013-04-27 22:02:00,65.1,52.2,30.26,East,91,2.0,6.0,63,0.00,,,0.00,Wunderground v.1.15,2013-04-28 02:02:00,
2013-04-27 22:07:00,64.9,52.0,30.26,East,92,4.0,6.0,63,0.00,,,0.00,Wunderground v.1.15,2013-04-28 02:07:00,
2013-04-27 22:12:00,64.9,52.4,30.26,ENE,65,0.0,7.0,64,0.00,,,0.00,Wunderground v.1.15,2013-04-28 02:12:00,
2013-04-27 22:17:00,64.8,52.8,30.26,ENE,67,2.0,7.0,65,0.00,,,0.00,Wunderground v.1.15,2013-04-28 02:17:00,
2013-04-27 22:22:00,64.7,53.1,30.26,ENE,74,0.0,5.0,66,0.00,,,0.00,Wunderground v.1.15,2013-04-28 02:22:00,
2013-04-27 22:27:00,64.7,53.5,30.26,ENE,64,0.0,6.0,67,0.00,,,0.00,Wunderground v.1.15,2013-04-28 02:27:00,
2013-04-27 22:32:00,64.6,53.8,30.26,ENE,65,6.0,6.0,68,0.00,,,0.00,Wunderground v.1.15,2013-04-28 02:32:00,
2013-04-27 22:37:00,64.6,54.2,30.26,ENE,71,0.0,6.0,69,0.00,,,0.00,Wunderground v.1.15,2013-04-28 02:37:00,
2013-04-27 22:42:00,64.6,54.6,30.26,ENE,68,0.0,6.0,70,0.00,,,0.00,Wunderground v.1.15,2013-04-28 02:42:00,
2013-04-27 22:47:00,64.7,54.7,30.26,ENE,63,6.0,8.0,70,0.00,,,0.00,Wunderground v.1.15,2013-04-28 02:47:00,
2013-04-27 22:52:00,64.7,55.1,30.26,ENE,58,0.0,5.0,71,0.00,,,0.00,Wunderground v.1.15,2013-04-28 02:52:00,
2013-04-27 22:57:00,64.6,55.4,30.26,ENE,60,0.0,7.0,72,0.00,,,0.00,Wunderground v.1.15,2013-04-28 02:57:00,
2013-04-27 23:02:00,64.6,55.7,30.25,East,81,0.0,7.0,73,0.00,,,0.00,Wunderground v.1.15,2013-04-28 03:02:00,
2013-04-27 23:07:00,64.6,56.1,30.25,ENE,61,2.0,7.0,74,0.00,,,0.00,Wunderground v.1.15,2013-04-28 03:07:00,
2013-04-27 23:12:00,64.6,56.5,30.25,ENE,68,0.0,7.0,75,0.00,,,0.00,Wunderground v.1.15,2013-04-28 03:12:00,
2013-04-27 23:17:00,64.6,56.5,30.25,ENE,67,1.0,7.0,75,0.00,,,0.00,Wunderground v.1.15,2013-04-28 03:17:00,
2013-04-27 23:22:00,64.7,56.6,30.25,ENE,74,5.0,7.0,75,0.00,,,0.00,Wunderground v.1.15,2013-04-28 03:22:00,
2013-04-27 23:27:00,64.6,56.9,30.24,ENE,71,5.0,8.0,76,0.00,,,0.00,Wunderground v.1.15,2013-04-28 03:27:00,
2013-04-27 23:32:00,64.6,56.9,30.24,NE,46,2.0,5.0,76,0.00,,,0.00,Wunderground v.1.15,2013-04-28 03:32:00,
2013-04-27 23:37:00,64.4,56.7,30.24,East,80,7.0,8.0,76,0.00,,,0.00,Wunderground v.1.15,2013-04-28 03:37:00,
2013-04-27 23:42:00,64.4,57.0,30.24,ENE,72,6.0,7.0,77,0.00,,,0.00,Wunderground v.1.15,2013-04-28 03:42:00,
2013-04-27 23:47:00,64.4,57.0,30.24,East,80,3.0,8.0,77,0.00,,,0.00,Wunderground v.1.15,2013-04-28 03:47:00,
2013-04-27 23:52:00,64.4,57.0,30.24,East,79,5.0,6.0,77,0.00,,,0.00,Wunderground v.1.15,2013-04-28 03:52:00,
2013-04-27 23:57:00,64.5,57.1,30.24,ENE,65,0.0,7.0,77,0.00,,,0.00,Wunderground v.1.15,2013-04-28 03:57:00,